RH
29 31 32 34 35 35 36 36 36 38 39 40 41 40 39 37 35 34 32 30 28 26 24 21 18 16 14 13 13 14 14 15 15 17 20 24 29 31 33 34 34 34
31 32 34 35 36 36 37 37 37 39 40 41 41 41 39 37 35 33 31 28 26 23 20 18 16 15 14 14 14 15 16 17 18 20 24 28 32 35 36 37 37 36
32 34 36 37 37 37 37 38 39 40 41 42 42 41 39 37 34 32 29 25 22 19 17 16 15 15 15 15 16 17 18 19 21 25 29 33 36 38 39 39 39 39
34 35 37 38 38 38 38 38 40 41 42 43 42 41 39 36 34 30 26 22 18 16 15 15 15 16 17 17 18 20 20 22 25 29 34 37 40 41 41 42 41 41
35 36 37 38 38 38 39 39 40 42 43 44 43 41 38 35 32 27 22 18 15 14 14 15 17 19 20 20 22 23 25 27 30 34 38 40 43 44 44 44 44 43
36 37 38 39 38 38 39 40 41 43 44 44 43 40 37 34 29 24 18 15 14 15 16 18 20 21 22 23 25 28 30 32 35 39 41 43 45 47 47 47 46 45
37 38 38 39 38 39 40 40 42 44 45 45 43 40 36 32 26 19 15 14 15 17 20 21 22 23 23 24 27 31 34 36 38 41 44 46 47 48 49 49 48 47
38 39 38 38 38 39 40 41 43 45 45 45 43 39 35 29 22 16 14 15 17 20 22 24 24 24 24 25 28 32 36 38 40 43 45 48 50 50 51 52 51 50
39 39 38 38 38 39 40 42 44 46 46 45 42 39 33 26 19 15 15 17 19 22 24 25 25 24 24 25 28 32 37 39 41 43 46 48 50 52 53 54 53 53
39 39 38 38 38 39 41 43 45 47 46 45 42 37 30 23 17 15 17 19 21 24 25 26 25 25 24 25 27 32 37 40 41 44 45 47 49 51 52 53 53 52
39 39 38 39 39 40 42 45 47 47 47 45 41 35 27 20 17 16 18 21 23 25 27 27 27 26 25 25 27 31 36 40 43 44 45 47 48 49 50 51 51 50
40 39 39 39 39 41 44 46 48 48 48 45 40 32 25 19 17 17 20 22 24 26 28 29 28 27 26 26 27 30 35 39 43 44 46 47 47 48 49 49 49 49
39 39 39 39 41 43 45 47 49 49 48 45 38 30 23 19 17 19 21 23 24 26 29 30 30 29 28 28 28 29 33 37 40 43 45 46 47 47 48 49 50 50
40 39 39 41 43 45 47 48 49 50 48 44 37 29 23 19 19 20 22 24 25 27 29 30 30 30 29 30 29 30 32 35 38 41 42 43 45 47 48 48 49 52
41 41 41 43 44 46 48 49 50 50 49 44 36 29 23 20 20 22 23 25 27 28 30 30 31 31 32 32 31 31 33 35 37 39 40 42 43 45 46 48 51 58
43 43 43 44 46 47 49 50 51 51 49 44 36 28 23 21 21 23 25 27 28 29 31 32 32 33 34 34 34 34 35 35 36 38 41 42 43 44 45 49 56 64
45 44 45 46 47 49 50 51 52 52 50 43 35 28 23 22 22 25 27 29 29 30 32 32 33 34 36 37 36 37 38 38 38 39 40 40 41 42 44 50 59 66
46 46 47 49 49 50 51 52 53 53 50 43 35 28 24 22 24 27 29 30 31 32 33 34 34 35 38 39 37 38 40 41 42 42 43 42 42 45 51 59 66 67
48 49 50 51 51 51 51 52 54 54 51 44 35 28 25 24 25 28 30 31 32 32 33 34 34 36 38 39 38 38 39 42 44 45 46 46 47 54 63 70 72 70
49 51 53 53 52 52 52 53 55 55 52 44 35 29 26 25 26 29 31 32 33 34 34 34 34 36 38 38 39 39 40 43 45 45 48 51 58 68 74 76 75 73
51 53 54 54 54 53 54 55 55 56 52 44 36 30 28 27 28 31 32 33 35 36 35 35 35 37 38 39 39 40 42 43 44 46 52 59 69 77 80 79 77 74
54 56 56 56 55 55 55 56 56 56 53 45 38 33 29 28 30 33 34 35 36 38 37 36 36 38 39 40 41 42 44 44 44 49 58 68 77 82 81 79 77 75
56 57 58 58 57 56 56 57 57 58 54 47 41 36 31 30 32 34 36 37 37 39 39 38 37 39 40 41 42 43 43 44 46 54 65 74 80 82 82 80 78 76
58 59 60 60 59 58 58 58 59 59 56 50 44 38 33 31 32 35 38 40 40 40 41 40 38 39 41 41 41 42 43 45 50 60 69 76 80 83 84 82 78 76
59 61 62 62 61 60 60 60 61 61 59 53 46 40 34 32 33 36 40 42 43 42 42 42 41 40 41 41 40 41 43 47 54 63 72 78 82 84 83 79 76 74
61 63 63 63 63 62 62 62 63 63 61 57 51 43 36 33 34 39 42 44 45 44 43 45 44 42 41 40 40 41 44 49 56 65 74 80 84 84 80 76 74 73
Wind_Speed
51 51 52 52 52 53 53 54 54 54 55 55 55 56 56 56 57 57 57 57 56 55 54 54 53 53 53 52 52 51 50 49 48 47 46 45 45 45 44 44 43 43
51 52 52 52 52 53 53 54 54 55 55 56 56 56 57 57 57 57 56 56 55 54 53 52 52 51 51 51 50 50 49 47 46 45 45 44 44 44 43 43 43 43
51 52 52 52 52 52 53 54 55 55 56 56 56 57 57 57 56 56 55 55 54 53 52 51 50 50 49 49 49 48 47 46 45 44 44 44 43 43 43 43 43 43
51 52 52 52 52 53 53 54 54 55 56 56 56 57 57 56 56 55 54 54 53 52 51 50 49 48 48 48 47 46 45 44 43 43 43 43 43 43 43 43 43 43
51 51 52 52 52 53 53 54 54 55 55 56 56 56 56 55 55 54 53 53 52 52 50 49 48 47 47 46 46 45 43 43 42 43 43 42 42 43 43 44 44 44
51 51 51 51 52 53 53 54 54 54 55 55 56 55 55 55 54 53 53 52 51 50 48 47 46 46 46 45 45 43 42 42 42 42 43 43 43 43 43 44 44 44
50 50 51 51 52 53 53 54 54 54 55 55 55 54 54 54 53 52 52 51 50 48 47 46 45 45 45 44 43 42 41 41 42 42 43 43 43 43 43 44 45 45
50 50 51 51 52 53 53 53 53 54 54 54 54 53 53 52 51 51 50 49 48 47 46 45 44 44 43 43 42 41 41 41 41 42 42 43 43 43 44 44 45 45
50 50 51 52 52 52 53 53 53 53 54 54 53 52 51 50 50 49 48 48 47 46 45 44 44 43 43 42 41 41 40 40 40 41 42 42 43 43 44 45 46 46
50 50 51 52 52 52 52 52 53 53 53 53 52 51 50 49 48 47 47 46 45 45 44 44 43 43 42 42 41 40 40 40 40 41 41 42 43 43 44 45 46 46
49 50 51 51 51 51 52 52 53 53 53 52 51 51 49 48 47 46 46 45 45 44 44 43 43 42 42 41 40 40 40 40 40 40 41 42 43 44 45 45 46 47
49 49 50 51 51 51 51 52 53 53 52 52 51 50 49 47 46 46 45 44 44 44 43 43 42 41 41 40 39 39 39 40 40 40 41 42 43 44 45 45 46 46
48 49 50 50 50 50 51 52 52 52 51 51 50 49 48 47 46 45 44 44 43 43 43 42 42 41 40 40 39 39 39 39 39 40 41 42 43 44 44 45 45 45
48 49 49 49 49 50 50 51 51 51 50 50 49 48 47 46 46 45 44 43 43 43 43 42 42 41 39 39 38 38 38 39 39 40 42 42 43 43 44 44 45 44
48 48 48 48 49 49 50 51 51 50 50 49 49 48 47 46 45 44 43 43 43 43 42 42 41 40 39 38 38 38 38 39 40 41 42 42 43 43 44 44 43 43
47 48 48 47 48 49 50 50 50 49 49 49 48 48 47 46 45 44 43 43 43 43 42 41 40 40 38 38 38 38 39 40 41 41 42 43 43 44 44 43 42 41
47 47 47 47 48 49 49 49 49 49 49 48 48 47 46 46 45 44 43 42 43 43 42 41 39 39 38 37 37 38 39 40 42 42 43 43 44 44 43 42 41 40
46 46 47 47 48 48 48 48 48 49 48 48 47 46 46 45 44 43 42 42 42 42 41 40 39 38 38 37 37 37 37 39 41 43 44 44 44 43 42 41 41 40
45 46 47 47 47 47 48 48 48 48 48 48 47 46 45 45 44 43 42 42 42 42 41 40 38 37 37 37 37 36 36 37 40 43 45 45 44 43 41 41 41 41
45 46 47 47 47 47 47 47 47 48 47 47 47 46 45 44 43 42 42 41 41 41 41 40 37 37 37 37 37 36 35 36 40 43 44 44 43 42 42 41 41 41
45 46 46 46 46 47 47 47 47 47 47 46 46 46 45 44 43 42 41 41 41 41 41 40 37 37 37 37 36 36 35 37 39 42 43 43 43 42 41 41 41 41
45 46 46 46 46 46 46 46 46 46 46 46 46 45 44 44 43 42 41 40 40 40 41 40 37 36 37 37 36 35 35 37 39 40 42 42 42 41 40 40 40 40
45 46 46 46 46 46 46 46 46 46 45 45 46 45 44 43 42 42 40 40 40 40 40 40 38 36 36 36 35 35 35 37 38 39 41 42 41 40 39 39 39 39
44 45 46 45 45 45 45 45 45 45 45 45 45 45 44 43 43 42 40 39 39 40 40 40 38 36 36 36 35 34 35 36 37 39 40 41 40 39 38 38 38 39
44 45 45 45 45 45 45 45 44 44 44 44 45 45 44 43 43 42 41 39 39 39 40 40 39 37 36 36 34 33 33 35 36 38 40 40 40 39 39 38 38 38
44 44 44 44 45 45 44 44 44 43 44 43 44 44 44 43 42 42 41 39 38 39 39 39 40 38 36 36 35 32 32 33 36 38 39 40 40 40 39 38 38 37
Wind_Direction
308 309 309 309 310 310 311 312 312 312 311 310 309 309 309 309 308 307 305 303 301 299 297 296 294 293 291 290 288 287 285 282 280 277 274 271 270 269 269 270 271 272
308 308 308 309 310 311 311 312 312 311 311 310 310 310 310 309 308 307 305 303 301 299 298 296 294 292 291 289 287 286 284 281 279 276 273 271 269 268 269 270 271 271
307 307 308 309 310 311 311 312 311 311 310 310 310 310 310 309 308 306 304 303 301 300 298 297 295 293 291 289 287 285 283 281 278 275 272 270 269 268 269 269 270 271
307 307 308 310 311 311 311 311 311 310 310 310 310 310 309 309 307 305 304 303 301 300 299 297 295 293 291 289 288 286 284 281 278 275 272 270 269 269 269 269 270 270
306 307 309 310 311 311 311 310 310 310 310 310 309 309 309 308 306 305 304 303 302 301 299 298 296 294 292 290 288 286 284 281 278 275 273 271 270 269 269 269 270 271
306 308 309 310 310 310 310 310 310 310 309 309 309 309 308 307 306 305 304 303 302 301 300 298 296 293 292 290 288 286 284 280 277 275 273 271 270 269 269 269 270 271
307 308 310 310 310 310 310 310 309 309 308 308 308 308 307 307 306 306 305 304 302 301 300 298 295 293 292 290 288 285 283 280 277 274 273 271 270 269 269 270 270 271
308 309 309 309 309 309 309 309 308 307 307 308 308 308 307 307 306 305 304 303 302 301 299 297 296 294 292 290 287 285 282 279 276 274 273 272 271 271 271 271 271 272
308 309 309 308 308 308 308 307 306 306 307 307 307 307 307 307 306 305 304 303 301 300 299 298 296 295 292 290 288 285 282 279 277 275 274 272 272 272 272 272 272 273
308 308 308 307 308 307 306 306 306 306 307 307 307 307 307 306 305 304 303 302 301 300 299 298 297 295 293 290 288 285 282 280 278 276 275 274 273 272 272 272 273 274
307 307 306 306 306 306 305 305 305 306 307 307 307 307 307 306 305 304 303 302 301 300 299 298 297 296 293 290 288 285 282 280 279 277 276 274 273 273 273 273 274 275
306 305 305 305 305 305 305 305 305 306 307 307 307 307 307 306 305 305 304 303 302 301 300 299 297 295 293 291 288 285 282 280 279 278 276 275 274 274 274 275 276 277
304 304 304 304 304 304 304 304 305 306 307 307 307 307 307 306 306 305 304 303 302 301 300 299 297 296 294 291 289 285 283 281 280 279 277 276 275 275 276 276 277 279
303 303 303 304 304 303 303 304 305 306 307 307 307 307 306 306 306 305 304 303 302 301 299 298 297 296 294 292 289 286 284 282 281 279 277 277 277 277 277 278 279 281
303 303 303 304 303 303 303 304 305 306 307 307 307 307 307 306 305 305 304 303 302 300 299 298 298 297 295 293 290 288 286 283 281 279 279 279 278 278 278 279 281 283
303 303 303 303 303 303 303 304 306 306 307 307 307 306 307 306 305 305 304 303 301 300 299 298 298 298 296 294 291 289 287 284 282 280 279 278 278 278 278 280 282 284
303 303 303 303 303 303 304 305 306 307 307 307 306 306 306 305 305 305 304 302 301 300 299 298 298 297 296 293 291 289 287 286 284 282 280 279 279 279 281 283 286 287
304 304 303 303 303 304 305 305 306 307 306 306 306 306 306 305 305 304 303 302 301 301 300 299 298 297 295 292 290 287 286 285 284 283 282 281 281 283 285 288 290 290
304 304 303 304 305 305 305 306 306 306 306 306 306 306 305 305 304 304 303 303 302 301 300 299 298 296 294 291 289 287 285 283 282 281 281 282 284 286 288 290 291 291
304 304 304 305 305 305 305 305 306 306 306 306 306 306 305 305 304 304 304 303 302 301 300 299 298 296 293 291 289 287 285 282 280 279 281 283 285 288 289 290 290 290
304 304 305 305 305 305 305 305 305 305 306 306 305 305 305 305 304 304 304 303 302 301 300 299 299 296 293 291 289 287 284 281 279 279 281 283 284 286 287 288 289 289
305 305 305 305 305 305 305 305 305 306 306 305 305 305 305 305 304 304 304 303 302 301 300 300 299 297 294 292 289 287 283 280 279 279 280 281 283 284 286 287 288 289
305 305 305 306 305 305 305 305 305 306 306 305 305 305 305 305 304 304 304 303 302 301 300 300 300 298 294 291 289 286 283 281 280 279 279 280 282 284 286 287 288 289
305 305 306 306 305 305 305 305 306 306 306 305 305 305 306 305 305 304 304 304 303 302 301 302 302 300 295 291 289 287 284 282 280 280 280 281 283 285 286 287 288 289
305 305 306 306 306 306 305 306 306 306 306 306 305 306 306 305 305 304 304 304 303 303 303 303 303 301 297 293 291 288 285 283 282 281 282 283 285 286 286 287 289 289
305 306 307 306 306 306 306 306 307 306 306 306 306 306 306 305 305 304 304 304 304 303 303 303 303 302 299 295 293 291 288 285 283 283 284 285 285 286 287 289 290 291